sat.trackr.live / text

‹ back to catalog

STARLINK-4363

NORAD 53220 · 2022-084AH

PAYLOAD ACTIVE UNKNOWN

§ Identity

Operator
Country
US
Launch date
2022-07-22
Launch site
AFWTR
Launch vehicle
Mass (kg)
RCS (m²)

Purposes: comms

External: N2YO · Heavens-Above · Gunter

§ Orbital elements

Epoch: 2026-09-19T09:37:23.200608Z

Period
93.91 min
Inclination
97.2849°
Eccentricity
0.0001223
Mean motion
15.33438020 rev/d
Perigee alt
464.7 km
Apogee alt
466.4 km
Semi-major
6,843.7 km
B*
1.4196e-5
RAAN
317.2151°
Arg perigee
97.7584°
Mean anomaly
262.3798°
Rev number
22,904

§ Raw data

STARLINK-43631 53220U 22084AH  26262.40096297  .00000383  00000+0  14196-4 0  99912 53220  97.2849 317.2151 0001223  97.7584 262.3798 15.33438020229044

JSON: /api/v1/satellites/53220 · /tle

For live sub-satellite position, see the globe view (requires WebGL).

§ Visibility from observer

Set your observer location to see the next 7 days of passes ≥ 10°. The values pass through the URL so the page stays shareable.

No JS? Fill the form by hand. The geolocation button needs JavaScript.